When you browse on this site, cookies collect data to enhance your experience and personalize the content and advertising you see.
Visit our Privacy Policy to learn more. By continuing to use the site, you agree to this use of cookies and data.

Hourly Weather Puerto Ayacucho

Today, 3 July, Friday

Time Temperature Precipitation Wind Pressure Humidity
00:00 +26°C° 0.2 mm 1 mps 750 mmHg 92%
01:00 +26°C° 0.2 mm 1 mps 750 mmHg 93%
02:00 +26°C° 1.5 mm 1 mps 750 mmHg 94%
03:00 +25°C° 1.5 mm 1 mps 750 mmHg 95%
04:00 +25°C° 1.5 mm 1 mps 750 mmHg 95%
05:00 +25°C° 0.6 mm 1 mps 750 mmHg 95%
06:00 +25°C° 0.6 mm 1 mps 750 mmHg 95%
07:00 +25°C° 0.6 mm 1 mps 751 mmHg 95%
08:00 +27°C° 0 mm 1 mps 751 mmHg 89%
09:00 +29°C° 0 mm 1 mps 751 mmHg 83%
10:00 +28°C° 0 mm 0 mps 751 mmHg 77%
11:00 +31°C° 0.1 mm 1 mps 750 mmHg 73%
12:00 +32°C° 0.1 mm 1 mps 749 mmHg 69%
13:00 +33°C° 0.1 mm 1 mps 749 mmHg 65%
14:00 +32°C° 1.2 mm 1 mps 748 mmHg 69%
15:00 +32°C° 1.2 mm 1 mps 748 mmHg 72%
16:00 +31°C° 1.2 mm 1 mps 748 mmHg 76%
17:00 +30°C° 0.9 mm 1 mps 748 mmHg 80%
18:00 +29°C° 0.9 mm 2 mps 749 mmHg 85%
19:00 +28°C° 0.9 mm 2 mps 749 mmHg 89%
20:00 +27°C° 0.2 mm 2 mps 750 mmHg 90%
21:00 +27°C° 0.2 mm 1 mps 750 mmHg 91%
22:00 +27°C° 0.2 mm 1 mps 751 mmHg 93%
23:00 +26°C° 0.9 mm 1 mps 750 mmHg 93%

Tomorrow, 4 July, Saturday

Time Temperature Precipitation Wind Pressure Humidity
00:00 +26°C° 0.9 mm 1 mps 750 mmHg 94%
01:00 +26°C° 0.9 mm 1 mps 750 mmHg 95%
02:00 +26°C° 0.6 mm 1 mps 750 mmHg 94%
03:00 +26°C° 0.6 mm 1 mps 750 mmHg 94%
04:00 +26°C° 0.6 mm 1 mps 750 mmHg 93%
05:00 +26°C° 0.8 mm 1 mps 750 mmHg 93%
06:00 +27°C° 0.8 mm 1 mps 751 mmHg 92%
07:00 +27°C° 0.8 mm 1 mps 751 mmHg 91%
08:00 +28°C° 0.3 mm 1 mps 751 mmHg 86%
09:00 +29°C° 0.3 mm 1 mps 751 mmHg 82%
10:00 +30°C° 0.3 mm 1 mps 751 mmHg 77%
11:00 +30°C° 1.6 mm 1 mps 751 mmHg 77%
12:00 +31°C° 1.6 mm 1 mps 750 mmHg 77%
13:00 +31°C° 1.6 mm 2 mps 749 mmHg 78%
14:00 +31°C° 2.9 mm 1 mps 749 mmHg 80%
15:00 +30°C° 2.9 mm 1 mps 749 mmHg 83%
16:00 +30°C° 2.9 mm 1 mps 748 mmHg 85%
17:00 +29°C° 1.6 mm 1 mps 749 mmHg 87%
18:00 +28°C° 1.6 mm 1 mps 749 mmHg 88%
19:00 +27°C° 1.6 mm 1 mps 750 mmHg 90%
20:00 +27°C° 0 mm 1 mps 750 mmHg 90%
21:00 +25°C° 0 mm 0 mps 751 mmHg 91%
22:00 +24°C° 0 mm 0 mps 751 mmHg 92%
23:00 +24°C° 0.6 mm 0 mps 751 mmHg 92%

Day after tomorrow, 5 July, Sunday

Time Temperature Precipitation Wind Pressure Humidity
00:00 +24°C° 0.6 mm 0 mps 750 mmHg 93%
01:00 +24°C° 0.6 mm 0 mps 750 mmHg 93%
02:00 +26°C° 1.7 mm 1 mps 750 mmHg 94%
03:00 +26°C° 1.7 mm 1 mps 750 mmHg 94%
04:00 +26°C° 1.7 mm 1 mps 750 mmHg 95%
05:00 +26°C° 1 mm 1 mps 751 mmHg 94%
06:00 +26°C° 1 mm 1 mps 751 mmHg 94%
07:00 +26°C° 1 mm 2 mps 752 mmHg 94%
08:00 +27°C° 0.4 mm 1 mps 752 mmHg 92%
09:00 +27°C° 0.4 mm 1 mps 752 mmHg 91%
10:00 +27°C° 0.4 mm 1 mps 752 mmHg 89%
11:00 +28°C° 0.5 mm 1 mps 752 mmHg 86%
12:00 +29°C° 0.5 mm 1 mps 751 mmHg 82%
13:00 +30°C° 0.5 mm 1 mps 750 mmHg 79%
14:00 +30°C° 1.1 mm 1 mps 750 mmHg 80%
15:00 +29°C° 1.1 mm 1 mps 749 mmHg 82%
16:00 +29°C° 1.1 mm 1 mps 749 mmHg 84%
17:00 +29°C° 1.5 mm 1 mps 749 mmHg 86%
18:00 +28°C° 1.5 mm 1 mps 750 mmHg 89%
19:00 +25°C° 1.5 mm 0 mps 750 mmHg 91%
20:00 +25°C° 0.3 mm 0 mps 751 mmHg 91%
21:00 +27°C° 0.3 mm 1 mps 751 mmHg 92%
22:00 +26°C° 0.3 mm 1 mps 751 mmHg 93%
23:00 +26°C° 0.2 mm 1 mps 751 mmHg 93%

6 July, Monday

Time Temperature Precipitation Wind Pressure Humidity
00:00 +26°C° 0.2 mm 1 mps 751 mmHg 93%
01:00 +26°C° 0.2 mm 1 mps 750 mmHg 94%
02:00 +26°C° 2.8 mm 1 mps 750 mmHg 95%
03:00 +25°C° 2.8 mm 1 mps 750 mmHg 96%
04:00 +25°C° 2.8 mm 2 mps 750 mmHg 97%
05:00 +25°C° 4.8 mm 1 mps 751 mmHg 97%
06:00 +25°C° 4.8 mm 1 mps 752 mmHg 97%
07:00 +25°C° 4.8 mm 1 mps 752 mmHg 97%
08:00 +25°C° 0.3 mm 1 mps 752 mmHg 96%
09:00 +24°C° 0.3 mm 0 mps 753 mmHg 94%
10:00 +24°C° 0.3 mm 0 mps 753 mmHg 93%
11:00 +25°C° 0.1 mm 0 mps 752 mmHg 91%
12:00 +27°C° 0.1 mm 1 mps 752 mmHg 90%
13:00 +27°C° 0.1 mm 1 mps 751 mmHg 88%
14:00 +28°C° 0 mm 1 mps 751 mmHg 87%
15:00 +28°C° 0 mm 1 mps 750 mmHg 86%
16:00 +28°C° 0 mm 2 mps 750 mmHg 84%
17:00 +28°C° 0 mm 2 mps 750 mmHg 87%
18:00 +27°C° 0 mm 1 mps 751 mmHg 89%
19:00 +26°C° 0 mm 1 mps 751 mmHg 91%
20:00 +26°C° 0.3 mm 1 mps 752 mmHg 92%
21:00 +26°C° 0.3 mm 1 mps 752 mmHg 92%
22:00 +25°C° 0.3 mm 1 mps 752 mmHg 93%
23:00 +25°C° 0.8 mm 1 mps 752 mmHg 94%

7 July, Tuesday

Time Temperature Precipitation Wind Pressure Humidity
00:00 +25°C° 0.8 mm 1 mps 752 mmHg 95%
01:00 +23°C° 0.8 mm 0 mps 751 mmHg 96%
02:00 +23°C° 1 mm 0 mps 751 mmHg 96%
03:00 +23°C° 1 mm 0 mps 751 mmHg 96%
04:00 +23°C° 1 mm 0 mps 751 mmHg 97%
05:00 +23°C° 0.9 mm 0 mps 752 mmHg 97%
06:00 +25°C° 0.9 mm 1 mps 752 mmHg 97%
07:00 +25°C° 0.9 mm 1 mps 752 mmHg 97%
08:00 +25°C° 0.1 mm 1 mps 753 mmHg 95%
09:00 +26°C° 0.1 mm 1 mps 753 mmHg 93%
10:00 +27°C° 0.1 mm 1 mps 753 mmHg 91%
11:00 +27°C° 0.1 mm 1 mps 752 mmHg 88%
12:00 +28°C° 0.1 mm 1 mps 752 mmHg 86%
13:00 +28°C° 0.1 mm 2 mps 751 mmHg 83%
14:00 +29°C° 0.2 mm 2 mps 751 mmHg 83%
15:00 +29°C° 0.2 mm 2 mps 750 mmHg 82%
16:00 +29°C° 0.2 mm 2 mps 750 mmHg 81%
17:00 +28°C° 0.1 mm 2 mps 750 mmHg 84%
18:00 +27°C° 0.1 mm 2 mps 751 mmHg 86%
19:00 +27°C° 0.1 mm 1 mps 751 mmHg 89%
20:00 +26°C° 0.4 mm 1 mps 752 mmHg 89%
21:00 +26°C° 0.4 mm 1 mps 752 mmHg 90%
22:00 +26°C° 0.4 mm 1 mps 752 mmHg 90%
23:00 +25°C° 0.6 mm 1 mps 752 mmHg 92%

8 July, Wednesday

Time Temperature Precipitation Wind Pressure Humidity
00:00 +25°C° 0.6 mm 1 mps 751 mmHg 93%
01:00 +23°C° 0.6 mm 0 mps 751 mmHg 95%
02:00 +23°C° 0.4 mm 0 mps 751 mmHg 95%
03:00 +23°C° 0.4 mm 0 mps 751 mmHg 95%
04:00 +23°C° 0.4 mm 0 mps 751 mmHg 95%
05:00 +25°C° 0.2 mm 1 mps 751 mmHg 95%
06:00 +26°C° 0.2 mm 1 mps 752 mmHg 94%
07:00 +26°C° 0.2 mm 1 mps 752 mmHg 93%
08:00 +27°C° 0 mm 1 mps 752 mmHg 88%
09:00 +29°C° 0 mm 2 mps 752 mmHg 82%
10:00 +30°C° 0 mm 2 mps 752 mmHg 77%
11:00 +31°C° 0.1 mm 2 mps 751 mmHg 73%
12:00 +32°C° 0.1 mm 2 mps 751 mmHg 70%
13:00 +34°C° 0.1 mm 2 mps 750 mmHg 66%
14:00 +33°C° 0.8 mm 1 mps 749 mmHg 68%
15:00 +32°C° 0.8 mm 1 mps 749 mmHg 69%
16:00 +32°C° 0.8 mm 1 mps 749 mmHg 71%
17:00 +31°C° 2.2 mm 1 mps 749 mmHg 76%
18:00 +29°C° 2.2 mm 1 mps 749 mmHg 81%
19:00 +28°C° 2.2 mm 1 mps 750 mmHg 86%
20:00 +27°C° 1.5 mm 1 mps 750 mmHg 87%
21:00 +27°C° 1.5 mm 1 mps 751 mmHg 88%
22:00 +27°C° 1.5 mm 1 mps 751 mmHg 89%
23:00 +26°C° 0.1 mm 1 mps 751 mmHg 91%
Show more